Weather History for Scottsdale, AZ

Change the Weather History Date:

Saturday, September 28, 2013

  Actual Average Record
Temperature  
Mean Temperature 75 °F -  
Max Temperature 88 °F 92 °F 102 °F (2001)
Min Temperature 62 °F 70 °F 62 °F (2013)
Cooling Degree Days 10    
Growing Degree Days 25 (Base 50)    
Moisture  
Dew Point 25 °F    
Average Humidity 17    
Maximum Humidity 31    
Minimum Humidity 8    
Precipitation  
Precipitation 0.00 in - - ()
Sea Level Pressure  
Sea Level Pressure 29.95 in    
Wind  
Wind Speed 2 mph (WSW)    
Max Wind Speed 9 mph    
Max Gust Speed -    
Visibility 10 miles    
Events      
Averages and records for this station are not official NWS values.
T = Trace of Precipitation, MM = Missing Value Source: NWS Daily Summary

Daily Weather History Graph

Daily Weather History Graph

Search for Another Location

Airport:

Trip Planner

Search our weather history database for the weather conditions in past years. The results will help you decide how hot, cold, wet, or windy it might be!

Date:

Astronomy

Sep. 28, 2013 Rise Set
Actual Time 6:20 AM MST 6:15 PM MST
Civil Twilight 5:55 AM MST 6:40 PM MST
Nautical Twilight 5:26 AM MST 7:09 PM MST
Astronomical Twilight 4:57 AM MST 7:38 PM MST
Moon 12:25 AM MST (9/28) 2:23 PM MST (9/28)
Length of Visible Light 12h 45m
Length of Day
11h 55m
Waning Crescent, 35% of the Moon is Illuminated
Sep 28
Waning Crescent
Oct 4
New
Oct 11
First Quarter
Oct 18
Full
Oct 26
Last Quarter

Hourly Weather History & Observations

Time (MST) Temp. Dew Point Humidity Pressure Visibility Wind Dir Wind Speed Gust Speed Precip Events Conditions
12:53 AM 66.9 °F 30.0 °F 25% 29.89 in 10.0 mi Calm Calm - N/A   Clear
1:53 AM 64.9 °F 27.0 °F 24% 29.90 in 10.0 mi Calm Calm - N/A   Clear
2:53 AM 63.0 °F 28.0 °F 27% 29.91 in 10.0 mi WSW 4.6 mph - N/A   Clear
3:53 AM 63.0 °F 28.0 °F 27% 29.92 in 10.0 mi WNW 3.5 mph - N/A   Clear
4:53 AM 63.0 °F 28.9 °F 28% 29.94 in 10.0 mi Calm Calm - N/A   Clear
5:53 AM 62.1 °F 30.9 °F 31% 29.96 in 10.0 mi Calm Calm - N/A   Clear
6:53 AM 63.0 °F 30.0 °F 29% 29.98 in 10.0 mi Calm Calm - N/A   Clear
7:53 AM 66.9 °F 30.0 °F 25% 30.00 in 10.0 mi SW 4.6 mph - N/A   Clear
8:53 AM 73.9 °F 28.9 °F 19% 30.01 in 10.0 mi SW 3.5 mph - N/A   Clear
9:53 AM 79.0 °F 21.9 °F 12% 30.02 in 10.0 mi South 4.6 mph - N/A   Clear
10:53 AM 82.0 °F 21.9 °F 11% 30.01 in 10.0 mi Calm Calm - N/A   Clear
11:53 AM 84.9 °F 21.0 °F 10% 29.99 in 10.0 mi SSW 3.5 mph - N/A   Clear
12:53 PM 86.0 °F 19.9 °F 9% 29.97 in 10.0 mi NE 9.2 mph - N/A   Clear
1:53 PM 88.0 °F 19.0 °F 8% 29.94 in 10.0 mi Variable 5.8 mph - N/A   Clear
2:53 PM 88.0 °F 21.0 °F 9% 29.92 in 10.0 mi SW 5.8 mph - N/A   Clear
3:53 PM 88.0 °F 21.0 °F 9% 29.91 in 10.0 mi SSW 3.5 mph - N/A   Clear
4:53 PM 88.0 °F 19.9 °F 8% 29.91 in 10.0 mi Variable 3.5 mph - N/A   Clear
5:53 PM 87.1 °F 19.9 °F 8% 29.92 in 10.0 mi SW 4.6 mph - N/A   Clear
6:53 PM 82.9 °F 24.1 °F 12% 29.93 in 10.0 mi Calm Calm - N/A   Clear
7:53 PM 79.0 °F 25.0 °F 14% 29.95 in 10.0 mi Calm Calm - N/A   Clear
8:53 PM 79.0 °F 27.0 °F 15% 29.96 in 10.0 mi North 5.8 mph - N/A   Clear
9:53 PM 77.0 °F 24.1 °F 14% 29.95 in 10.0 mi NNE 4.6 mph - N/A   Clear
10:53 PM 72.0 °F 27.0 °F 19% 29.96 in 10.0 mi WNW 3.5 mph - N/A   Clear
11:53 PM 70.0 °F 28.0 °F 21% 29.95 in 10.0 mi Calm Calm - N/A   Clear